AFL1758 UUEE-URWW

Flight info

Callsign AFL1758
Flight time N/A
Altitude 35000
Route TOGMO3J TOGMO M56 ABAGI B105 NIMTA/K0841F360 B105 NATIT NATIT2J
Aircraft A320/M-SDE3FGHIRWY/LB1

Departure

Time N/A
Airport Sheremetyevo International Airport (UUEE)

Arrival

Time 2026-04-26 06:52
Airport Volgograd International Airport (URWW)
Time Latitude Longitude Altitude Speed Heading
2026-04-26 06:28 50.98188 44.45228 34902 ft 451 kts 188°
2026-04-26 06:29 50.91922 44.44659 34910 ft 451 kts 188°
2026-04-26 06:29 50.85648 44.44071 34916 ft 452 kts 188°
2026-04-26 06:30 50.79373 44.43477 34924 ft 452 kts 188°
2026-04-26 06:30 50.73105 44.42907 34757 ft 451 kts 188°
2026-04-26 06:30 50.69969 44.42624 34522 ft 451 kts 188°
2026-04-26 06:31 50.66835 44.42335 34280 ft 452 kts 188°
2026-04-26 06:31 50.63691 44.42046 34041 ft 453 kts 188°
2026-04-26 06:31 50.60532 44.41757 33784 ft 454 kts 188°
2026-04-26 06:31 50.57379 44.41468 33487 ft 454 kts 188°
2026-04-26 06:32 50.54225 44.41178 33217 ft 454 kts 188°
2026-04-26 06:32 50.51072 44.40888 32944 ft 454 kts 188°
2026-04-26 06:32 50.47912 44.40594 32676 ft 454 kts 188°
2026-04-26 06:32 50.44760 44.40299 32406 ft 455 kts 188°
2026-04-26 06:33 50.41603 44.40004 32132 ft 455 kts 188°
2026-04-26 06:33 50.39508 44.39810 31970 ft 455 kts 188°
2026-04-26 06:33 50.32184 44.39144 31359 ft 457 kts 188°
2026-04-26 06:34 50.29004 44.38858 31078 ft 458 kts 188°
2026-04-26 06:34 50.25822 44.38571 30832 ft 458 kts 188°
2026-04-26 06:34 50.24745 44.38474 30745 ft 458 kts 188°
2026-04-26 06:35 50.12221 44.37475 29552 ft 460 kts 187°
2026-04-26 06:35 50.09012 44.37226 29264 ft 460 kts 187°
2026-04-26 06:35 50.05809 44.36975 28982 ft 461 kts 187°
2026-04-26 06:36 50.02603 44.36724 28699 ft 462 kts 187°
2026-04-26 06:36 49.99393 44.36472 28423 ft 463 kts 187°
2026-04-26 06:36 49.96166 44.36218 28127 ft 464 kts 187°
2026-04-26 06:36 49.92942 44.35963 27857 ft 465 kts 187°
2026-04-26 06:37 49.89699 44.35707 27582 ft 466 kts 187°
2026-04-26 06:37 49.86467 44.35450 27322 ft 466 kts 187°
2026-04-26 06:37 49.83235 44.35194 27050 ft 464 kts 187°
2026-04-26 06:37 49.80013 44.34939 26788 ft 463 kts 187°
2026-04-26 06:38 49.76802 44.34685 26524 ft 462 kts 187°
2026-04-26 06:38 49.73596 44.34432 26280 ft 461 kts 187°
2026-04-26 06:38 49.70385 44.34178 25817 ft 464 kts 187°
2026-04-26 06:38 49.67146 44.33916 25070 ft 468 kts 187°
2026-04-26 06:39 49.64979 44.33738 24595 ft 467 kts 187°
2026-04-26 06:39 49.61748 44.33471 23895 ft 464 kts 187°
2026-04-26 06:39 49.58552 44.33205 23123 ft 459 kts 187°
2026-04-26 06:39 49.55361 44.32934 22300 ft 454 kts 187°
2026-04-26 06:40 49.52230 44.32662 21516 ft 449 kts 187°
2026-04-26 06:40 49.49121 44.32473 20743 ft 444 kts 185°
2026-04-26 06:40 49.46051 44.32411 19778 ft 439 kts 184°
2026-04-26 06:40 49.43020 44.32452 18807 ft 429 kts 182°
2026-04-26 06:41 49.40091 44.32550 17801 ft 414 kts 182°
2026-04-26 06:41 49.37253 44.32657 16744 ft 401 kts 182°
2026-04-26 06:41 49.34502 44.32747 15712 ft 391 kts 182°
2026-04-26 06:41 49.31809 44.32811 14708 ft 382 kts 182°
2026-04-26 06:42 49.29179 44.32856 13748 ft 375 kts 183°
2026-04-26 06:42 49.26614 44.32890 13055 ft 359 kts 183°
2026-04-26 06:42 49.24218 44.32929 12905 ft 330 kts 183°
2026-04-26 06:42 49.22005 44.32967 12675 ft 309 kts 183°
2026-04-26 06:43 49.19884 44.32996 12126 ft 301 kts 184°
2026-04-26 06:43 49.17809 44.33018 11513 ft 296 kts 184°
2026-04-26 06:43 49.15765 44.33137 10886 ft 294 kts 175°
2026-04-26 06:43 49.13822 44.33967 10291 ft 295 kts 159°
2026-04-26 06:44 49.11997 44.35362 9664 ft 291 kts 155°
2026-04-26 06:44 49.10207 44.36760 8988 ft 287 kts 157°
2026-04-26 06:44 49.08445 44.38135 8311 ft 283 kts 155°
2026-04-26 06:44 49.06705 44.39493 7617 ft 279 kts 155°
2026-04-26 06:45 49.04977 44.40836 6876 ft 279 kts 156°
2026-04-26 06:45 49.03253 44.42173 6164 ft 276 kts 156°
2026-04-26 06:45 49.01586 44.43468 5687 ft 264 kts 156°
2026-04-26 06:45 48.99993 44.44709 5307 ft 250 kts 157°
2026-04-26 06:46 48.98466 44.45897 4970 ft 245 kts 157°
2026-04-26 06:46 48.96958 44.47064 4633 ft 242 kts 157°
2026-04-26 06:46 48.95466 44.48218 4298 ft 240 kts 158°
2026-04-26 06:46 48.93989 44.49365 3973 ft 237 kts 157°
2026-04-26 06:47 48.92572 44.50587 3745 ft 230 kts 154°
2026-04-26 06:47 48.91230 44.51830 3545 ft 222 kts 153°
2026-04-26 06:47 48.89931 44.53053 3340 ft 218 kts 154°
2026-04-26 06:47 48.88602 44.54035 3133 ft 207 kts 168°
2026-04-26 06:48 48.87219 44.54322 2952 ft 196 kts 186°
2026-04-26 06:48 48.85902 44.53967 2770 ft 190 kts 202°
2026-04-26 06:48 48.84739 44.53042 2549 ft 188 kts 219°
2026-04-26 06:48 48.83830 44.51660 2402 ft 183 kts 234°
2026-04-26 06:49 48.83232 44.50038 2297 ft 169 kts 243°
2026-04-26 06:49 48.82746 44.48492 2177 ft 155 kts 242°
2026-04-26 06:49 48.82309 44.47102 2127 ft 136 kts 242°
2026-04-26 06:49 48.81919 44.45865 2004 ft 125 kts 241°
2026-04-26 06:50 48.81545 44.44683 1857 ft 124 kts 240°
2026-04-26 06:50 48.81175 44.43512 1709 ft 122 kts 240°
2026-04-26 06:50 48.80808 44.42353 1539 ft 122 kts 242°
2026-04-26 06:50 48.80440 44.41190 1378 ft 123 kts 242°
2026-04-26 06:51 48.80073 44.40021 1204 ft 123 kts 239°
2026-04-26 06:51 48.79333 44.37623 884 ft 124 kts 238°
2026-04-26 06:51 48.78943 44.36417 677 ft 129 kts 239°
2026-04-26 06:52 48.78551 44.35197 520 ft 129 kts 239°
2026-04-26 06:52 48.78184 44.34083 473 ft 98 kts 244°
2026-04-26 06:52 48.77967 44.33384 456 ft 49 kts 244°
2026-04-26 06:52 48.77854 44.33025 437 ft 35 kts 244°
2026-04-26 06:53 48.77752 44.32703 432 ft 32 kts 244°
2026-04-26 06:53 48.77661 44.32402 418 ft 30 kts 245°
2026-04-26 06:53 48.77609 44.32190 418 ft 10 kts 297°
2026-04-26 06:53 48.77703 44.32100 419 ft 19 kts 335°
2026-04-26 06:54 48.77761 44.32163 420 ft 9 kts 64°
2026-04-26 06:54 48.77788 44.32245 422 ft 14 kts 64°